KD8AZC-13 Weather Reports


Display with metric or nautical units.
time (UTC)temp
F
wind
direction
speed
MPH
gust
MPH
rain 1hr
in
rain 24hr
in
rain mn
in
humidity
%
barometer
mb
20260504081502 43 324 0.0 0.0 0.00 0.00 0.00 75 1014.4
20260504044543 42 337 0.0 3.0 0.00 0.00 0.00 75 1015.3
20260504043042 42 322 1.0 3.0 0.00 0.00 0.00 75 1015.2
20260504041539 42 96 1.0 3.0 0.00 0.00 0.00 75 1015.2
20260504040058 42 354 1.0 2.0 0.00 0.00 0.00 70 1015.2
20260504034536 43 295 2.0 3.0 0.00 0.00 0.00 69 1015.3
20260504033035 43 71 1.0 3.0 0.00 0.00 0.00 66 1015.2
20260504031536 43 154 0.0 2.0 0.00 0.00 0.00 69 1015.3
20260504030032 43 141 0.0 2.0 0.00 0.00 0.00 68 1015.0
20260504024531 44 116 1.0 3.0 0.00 0.00 0.00 68 1015.1
20260504023031 44 254 1.0 2.0 0.00 0.00 0.00 64 1015.1
20260504021531 44 140 1.0 6.0 0.00 0.00 0.00 63 1015.1
20260504020031 46 48 1.0 4.0 0.00 0.00 0.00 65 1015.1
20260504014529 46 274 3.0 7.0 0.00 0.00 0.00 60 1014.8
20260504013029 47 274 2.0 4.0 0.00 0.00 0.00 57 1014.7
20260504011529 48 283 3.0 4.0 0.00 0.00 0.00 55 1014.5
20260504010030 49 264 1.0 4.0 0.00 0.00 0.00 53 1014.4
20260504004540 50 297 1.0 3.0 0.00 0.00 0.00 52 1014.4
20260504003027 50 259 2.0 8.0 0.00 0.00 0.00 48 1014.3
20260504001527 52 253 3.0 7.0 0.00 0.00 0.00 48 1014.2
20260504000027 54 287 1.0 4.0 0.00 0.00 0.00 42 1014.2
20260503234526 56 271 2.0 9.0 0.00 0.00 0.00 40 1014.1
20260503233026 57 337 1.0 5.0 0.00 0.00 0.00 40 1014.2
20260503231525 58 264 0.0 3.0 0.00 0.00 0.00 34 1014.2
20260503230024 58 273 5.0 10.0 0.00 0.00 0.00 33 1014.1
20260503224524 59 292 7.0 12.0 0.00 0.00 0.00 32 1014.1
20260503223024 60 256 6.0 11.0 0.00 0.00 0.00 31 1014.1
20260503221522 60 258 0.0 10.0 0.00 0.00 0.00 30 1013.9
20260503220022 61 256 0.0 13.0 0.00 0.00 0.00 31 1014.0
20260503214519 62 291 3.0 11.0 0.00 0.00 0.00 32 1014.1
20260503213020 63 318 6.0 13.0 0.00 0.00 0.00 29 1014.2
20260503211517 62 335 5.0 14.0 0.00 0.00 0.00 32 1014.2
20260503210015 61 258 5.0 16.0 0.00 0.00 0.00 31 1014.4
20260503204519 62 303 10.0 17.0 0.00 0.00 0.00 30 1014.4
20260503203015 62 332 9.0 22.0 0.00 0.00 0.00 31 1014.5
20260503201510 62 301 6.0 15.0 0.00 0.00 0.00 32 1014.8
20260503200009 61 327 9.0 18.0 0.00 0.00 0.00 32 1014.9
20260503194505 61 231 6.0 16.0 0.00 0.00 0.00 32 1015.2
20260503193010 60 328 7.0 13.0 0.00 0.00 0.00 34 1015.3
20260503191503 61 350 12.0 18.0 0.00 0.00 0.00 34 1015.6
20260503190001 62 249 3.0 12.0 0.00 0.00 0.00 31 1015.7
20260503184533 61 284 6.0 17.0 0.00 0.00 0.00 37 1016.0
20260503183029 60 260 8.0 19.0 0.00 0.00 0.00 36 1016.2
20260503181527 59 291 4.0 18.0 0.00 0.00 0.00 31 1016.3
20260503180027 59 348 11.0 18.0 0.00 0.00 0.00 35 1016.2
20260503174530 59 12 6.0 19.0 0.00 0.00 0.00 35 1016.3
20260503173025 59 269 9.0 21.0 0.00 0.00 0.00 32 1016.5
20260503171524 59 276 6.0 12.0 0.00 0.00 0.00 33 1016.7